Location: Unspecified
(0.0000°N, 0.0000°E)
Time: 17:34:52
(UTC+00:00)

YUBILEINY - Pass Details

Date: 12 December 2017
Orbit: 1478 x 1509 km, 82.5° (Epoch: 18 January)

Event Time Altitude Azimuth Distance (km) Brightness Sun altitude
Rises 03:30:58 0° 194° (SSW) 4,615 ? -32.4°
Reaches altitude 10° 03:33:55 10° 198° (SSW) 3,637 ? -31.8°
Enters shadow 03:41:38 53° 256° (WSW) 1,791 ? -30.1°
